TimeCDT,TemperatureF,Dew PointF,Humidity,Sea Level PressureIn,VisibilityMPH,Wind Direction,Wind SpeedMPH,Gust SpeedMPH,PrecipitationIn,Events,Conditions,WindDirDegrees,DateUTC
12:17 AM,33.8,33.8,100,29.93,0.2,NW,5.8,-,N/A,Fog,Fog,320,2013-03-31 05:17:00
12:37 AM,33.8,32.0,93,29.94,0.2,NW,6.9,-,N/A,Rain,Light Rain,320,2013-03-31 05:37:00
12:57 AM,33.8,32.0,93,29.95,0.2,NNW,10.4,-,N/A,Fog,Fog,330,2013-03-31 05:57:00
1:17 AM,33.8,32.0,93,29.95,0.5,NNW,9.2,-,N/A,Fog,Fog,330,2013-03-31 06:17:00
1:37 AM,33.8,32.0,93,29.95,1.0,NNW,6.9,-,N/A,,Overcast,340,2013-03-31 06:37:00
1:57 AM,33.8,32.0,93,29.97,2.5,NNW,8.1,-,N/A,,Overcast,340,2013-03-31 06:57:00
2:17 AM,33.8,32.0,93,29.96,5.0,NNW,9.2,-,N/A,,Mostly Cloudy,330,2013-03-31 07:17:00
2:37 AM,32.0,32.0,100,29.96,5.0,NW,11.5,-,N/A,,Scattered Clouds,310,2013-03-31 07:37:00
2:57 AM,33.8,32.0,93,29.95,7.0,NW,9.2,-,N/A,,Scattered Clouds,310,2013-03-31 07:57:00
3:17 AM,33.8,32.0,93,29.95,5.0,NW,8.1,-,N/A,,Overcast,310,2013-03-31 08:17:00
3:37 AM,33.8,32.0,93,29.95,5.0,WNW,10.4,-,N/A,,Mostly Cloudy,300,2013-03-31 08:37:00
3:57 AM,32.0,32.0,100,29.93,4.0,WNW,10.4,-,N/A,,Mostly Cloudy,300,2013-03-31 08:57:00
4:17 AM,32.0,32.0,100,29.92,4.0,WNW,10.4,-,N/A,,Scattered Clouds,290,2013-03-31 09:17:00
4:37 AM,32.0,32.0,100,29.92,4.0,WNW,10.4,-,N/A,,Clear,290,2013-03-31 09:37:00
4:57 AM,32.0,32.0,100,29.91,5.0,WNW,10.4,-,N/A,,Clear,290,2013-03-31 09:57:00
5:17 AM,32.0,32.0,100,29.91,5.0,WNW,12.7,-,N/A,,Clear,290,2013-03-31 10:17:00
5:37 AM,32.0,32.0,100,29.92,5.0,WNW,10.4,-,N/A,,Clear,290,2013-03-31 10:37:00
5:57 AM,32.0,30.2,93,29.91,5.0,WNW,9.2,-,N/A,,Clear,290,2013-03-31 10:57:00
6:17 AM,32.0,30.2,93,29.92,5.0,WNW,12.7,-,N/A,,Clear,290,2013-03-31 11:17:00
6:37 AM,32.0,30.2,93,29.92,5.0,WNW,11.5,-,N/A,,Clear,290,2013-03-31 11:37:00
6:57 AM,32.0,30.2,93,29.92,7.0,WNW,12.7,-,N/A,,Clear,300,2013-03-31 11:57:00
7:17 AM,32.0,30.2,93,29.92,7.0,WNW,13.8,18.4,N/A,,Clear,300,2013-03-31 12:17:00
7:37 AM,32.0,30.2,93,29.92,5.0,WNW,11.5,-,N/A,,Clear,290,2013-03-31 12:37:00
7:57 AM,32.0,30.2,93,29.93,4.0,WNW,12.7,-,N/A,,Clear,300,2013-03-31 12:57:00
8:17 AM,33.8,30.2,87,29.93,7.0,WNW,12.7,17.3,N/A,,Clear,300,2013-03-31 13:17:00
8:37 AM,33.8,30.2,87,29.94,10.0,NW,15.0,20.7,N/A,,Clear,310,2013-03-31 13:37:00
8:57 AM,33.8,30.2,87,29.95,10.0,NW,17.3,23.0,N/A,,Clear,320,2013-03-31 13:57:00
9:17 AM,33.8,30.2,87,29.96,10.0,NNW,17.3,23.0,N/A,,Mostly Cloudy,330,2013-03-31 14:17:00
9:37 AM,35.6,28.4,75,29.96,10.0,North,17.3,25.3,N/A,,Scattered Clouds,350,2013-03-31 14:37:00
9:57 AM,33.8,28.4,81,29.97,10.0,NNW,15.0,23.0,N/A,,Mostly Cloudy,330,2013-03-31 14:57:00
10:17 AM,35.6,28.4,75,29.98,10.0,NNW,19.6,28.8,N/A,,Mostly Cloudy,340,2013-03-31 15:17:00
10:37 AM,35.6,28.4,75,29.99,10.0,NNW,16.1,25.3,N/A,,Scattered Clouds,340,2013-03-31 15:37:00
10:58 AM,35.6,26.6,70,29.99,10.0,NNW,23.0,26.5,N/A,,Mostly Cloudy,330,2013-03-31 15:58:00
11:17 AM,35.6,26.6,70,29.99,10.0,NNW,20.7,25.3,N/A,,Mostly Cloudy,330,2013-03-31 16:17:00
11:37 AM,35.6,26.6,70,29.99,10.0,NNW,18.4,23.0,N/A,,Mostly Cloudy,330,2013-03-31 16:37:00
11:57 AM,37.4,24.8,60,29.99,10.0,North,20.7,27.6,N/A,,Scattered Clouds,350,2013-03-31 16:57:00
12:17 PM,37.4,24.8,60,29.99,10.0,North,19.6,26.5,N/A,,Scattered Clouds,350,2013-03-31 17:17:00
12:37 PM,37.4,23.0,56,29.99,10.0,North,18.4,-,N/A,,Scattered Clouds,350,2013-03-31 17:37:00
12:57 PM,37.4,26.6,65,30.00,10.0,North,18.4,23.0,N/A,,Mostly Cloudy,360,2013-03-31 17:57:00
1:17 PM,37.4,26.6,65,30.00,10.0,North,18.4,24.2,N/A,,Mostly Cloudy,360,2013-03-31 18:17:00
1:37 PM,37.4,24.8,60,30.01,10.0,NNW,17.3,20.7,N/A,,Mostly Cloudy,340,2013-03-31 18:37:00
1:57 PM,37.4,23.0,56,30.01,10.0,North,13.8,25.3,N/A,,Mostly Cloudy,350,2013-03-31 18:57:00
2:17 PM,37.4,23.0,56,30.00,10.0,North,16.1,26.5,N/A,,Mostly Cloudy,350,2013-03-31 19:17:00
2:37 PM,39.2,23.0,52,30.00,10.0,NNW,16.1,24.2,N/A,,Scattered Clouds,340,2013-03-31 19:37:00
2:57 PM,39.2,23.0,52,30.00,10.0,North,18.4,23.0,N/A,,Scattered Clouds,350,2013-03-31 19:57:00
3:17 PM,39.2,21.2,49,30.00,10.0,NNW,13.8,24.2,N/A,,Scattered Clouds,340,2013-03-31 20:17:00
3:37 PM,37.4,21.2,52,30.00,10.0,North,17.3,24.2,N/A,,Scattered Clouds,350,2013-03-31 20:37:00
3:57 PM,39.2,21.2,49,30.00,10.0,NNW,11.5,23.0,N/A,,Scattered Clouds,340,2013-03-31 20:57:00
4:17 PM,37.4,21.2,52,30.01,10.0,NNW,17.3,23.0,N/A,,Scattered Clouds,340,2013-03-31 21:17:00
4:37 PM,37.4,21.2,52,30.02,10.0,North,17.3,21.9,N/A,,Scattered Clouds,360,2013-03-31 21:37:00
4:57 PM,35.6,19.4,52,30.01,10.0,NNW,17.3,-,N/A,,Mostly Cloudy,340,2013-03-31 21:57:00
5:17 PM,35.6,19.4,52,30.02,10.0,North,16.1,21.9,N/A,,Mostly Cloudy,350,2013-03-31 22:17:00
5:37 PM,35.6,19.4,52,30.02,10.0,North,15.0,20.7,N/A,,Overcast,360,2013-03-31 22:37:00
5:57 PM,33.8,15.8,48,30.03,10.0,North,16.1,21.9,N/A,,Overcast,360,2013-03-31 22:57:00
6:17 PM,33.8,15.8,48,30.04,10.0,North,16.1,23.0,N/A,,Overcast,360,2013-03-31 23:17:00
6:37 PM,32.0,17.6,55,30.05,10.0,North,16.1,-,N/A,,Mostly Cloudy,350,2013-03-31 23:37:00
6:57 PM,32.0,17.6,55,30.06,10.0,North,13.8,-,N/A,,Mostly Cloudy,350,2013-03-31 23:57:00
7:17 PM,32.0,17.6,55,30.08,10.0,North,16.1,21.9,N/A,,Mostly Cloudy,360,2013-04-01 00:17:00
7:37 PM,32.0,17.6,55,30.08,10.0,North,12.7,19.6,N/A,,Scattered Clouds,360,2013-04-01 00:37:00
7:57 PM,30.2,17.6,60,30.09,10.0,North,11.5,19.6,N/A,,Scattered Clouds,360,2013-04-01 00:57:00
8:17 PM,30.2,17.6,60,30.10,10.0,North,12.7,17.3,N/A,,Scattered Clouds,360,2013-04-01 01:17:00
8:37 PM,30.2,17.6,60,30.11,10.0,North,11.5,20.7,N/A,,Clear,360,2013-04-01 01:37:00
8:57 PM,30.2,17.6,60,30.12,10.0,North,8.1,-,N/A,,Scattered Clouds,10,2013-04-01 01:57:00
9:17 PM,28.4,19.4,69,30.13,10.0,North,9.2,-,N/A,,Scattered Clouds,10,2013-04-01 02:17:00
9:37 PM,28.4,17.6,64,30.14,10.0,North,9.2,17.3,N/A,,Clear,10,2013-04-01 02:37:00
9:57 PM,28.4,17.6,64,30.15,10.0,North,8.1,-,N/A,,Scattered Clouds,360,2013-04-01 02:57:00
10:17 PM,26.6,17.6,69,30.16,10.0,North,11.5,19.6,N/A,,Clear,360,2013-04-01 03:17:00
10:37 PM,26.6,17.6,69,30.17,10.0,North,10.4,-,N/A,,Clear,360,2013-04-01 03:37:00
10:58 PM,26.6,17.6,69,30.17,10.0,North,11.5,-,N/A,,Clear,360,2013-04-01 03:58:00
11:17 PM,26.6,17.6,69,30.17,10.0,North,10.4,-,N/A,,Clear,360,2013-04-01 04:17:00
11:37 PM,26.6,17.6,69,30.17,10.0,North,11.5,-,N/A,,Clear,350,2013-04-01 04:37:00
11:57 PM,26.6,15.8,64,30.18,10.0,North,12.7,-,N/A,,Clear,350,2013-04-01 04:57:00